Погода в Раздольном

Россия / Сахалинская область     46°38′57″N   142°48′54″E
темп.,
°C
ветер,
м/с
пор.,
м/с
влажн.,
%
обл.,
%
осадки,
мм/ч
давл.,
гПа
погр.,
м
16 апреля, пт
пт1623:00−1ююз11684 0.0 101911
02:00−1ююз11754 0.0 102112
05:00−1ссв00834 0.0 102210
08:00+1ююв11816 0.0 102348
11:00+5ююз4778100 0.0 1023459
14:00+5ююз4987100 0.0 1023452
17:00+7ююз487887 0.0 1023671
20:00+3ююв3488100 0.0 102457
17 апреля, сб
сб1723:00+2всв2277100 0.0 102331
02:00+1в2385100 0.0 102249
05:00+1вюв119196 0.0 102125
08:00+2вюв2595100 2.0 1021152
11:00+3ююв389478 3.7 1021297
14:00+4ю3691100 0.3 1020223
17:00+4ююв2795100 0.8 1019226
20:00+4вюв1194100 0.1 101933
18 апреля, вс
вс1823:00+4в2395100 0.2 101873
02:00+4в3597100 1.3 1016162
05:00+5вюв51395100 5.3 1014620
08:00+4в61394100 2.4 1012587
11:00+3всв61394100 4.1 1009434
14:00+2св71494100 1.1 1007434
17:00+2св71595100 1.3 1002499
20:00+2св81895100 4.1 998868
19 апреля, пн
пн1923:00+2св101794100 9.4 995860
02:00+1ссв41192100 0.7 993698
05:000ссз239899 1.4 992129
08:00+1ссз129052 0.1 992201
11:00+3ю2281100 0.1 993609
14:00+2ю1097100 0.4 993177
17:00+3с2396100 0.9 994394
20:00+2с2594100 0.5 996328
20 апреля, вт
вт2023:00+2зсз369252 0.5 997331
02:00+1сз6128498 0.0 999681
05:00+1сз6138192 0.0 1001786
08:00+2з6108578 0.0 1003833
11:00+4з5776100 0.1 1004920
14:00+6зюз476527 0.1 10041109
17:00+8ююз35615 0.1 1003825
20:00+4ю3885100 0.2 1003232